Regional Weather Roundup
Issued by NWS

Home | Current Version | Previous Version | Text Only | Print | Product List | Glossary Off
Versions: 1 2 3 4 5 6 7 8 9 10 11 12 13 14 15 16 17 18 19 20 21 22 23 24 25 26 27 28 29 30 31 32 33 34 35 36 37 38 39 40 41 42 43 44 45 46 47 48 49 50

000
ASUS43 KLMK 190002
RWRKY
KENTUCKY REGIONAL WEATHER ROUNDUP
NATIONAL WEATHER SERVICE LOUISVILLE KY
800 PM EDT SAT APR 18 2015

NOTE "FAIR" INDICATES FEW OR NO CLOUDS BELOW 12,000 FEET
WITH NO SIGNIFICANT WEATHER AND/OR OBSTRUCTIONS TO VISIBILITY.

KYZ001>023-026-027-061>063-070>075-190100-
WESTERN AND SOUTH CENTRAL KENTUCKY

CITY           SKY/WX    TMP DP  RH WIND       PRES   REMARKS
PADUCAH        MOCLDY    75  57  53 CALM      29.85F
HENDERSON      CLOUDY    72  54  53 N5        29.87F
OWENSBORO      CLOUDY    77  53  43 E7        29.88F
HOPKINSVILLE   CLOUDY    75  60  58 E3        29.87F
BOWLING GREEN  MOCLDY    76  59  55 CALM      29.89S
GLASGOW        NOT AVBL
$$

KYZ024-025-028>034-038-045-046-053-190100-
NORTH CENTRAL KENTUCKY

CITY           SKY/WX    TMP DP  RH WIND       PRES   REMARKS
LOUISVILLE/SDF CLOUDY    77  45  32 E8        29.92R
LOUISVILLE/LOU MOCLDY    77  45  32 E7        29.93R
FORT KNOX      MOCLDY    74  46  37 NE6       29.90R
$$

KYZ035>037-039>044-047>052-055>060-089>105-190100-
NORTHEAST KENTUCKY

CITY           SKY/WX    TMP DP  RH WIND       PRES   REMARKS
LEXINGTON      MOCLDY    69  51  52 NE7       29.94S
COVINGTON      MOCLDY    74  46  36 E12       29.96S
FRANKFORT      MOCLDY    72  48  42 NE5       29.93R
$$

KYZ054-064>069-076>088-106>120-190100-
SOUTHEAST KENTUCKY

CITY           SKY/WX    TMP DP  RH WIND       PRES   REMARKS
JACKSON        PTCLDY    74  48  39 CALM      29.93F
LONDON         MOCLDY    78  44  29 CALM      29.91S
SOMERSET       NOT AVBL
MIDDLESBORO    NOT AVBL
MONTICELLO     MOCLDY    73  62  68 N3        29.93R
$$



USA.gov is the U.S. government's official web portal to all federal, state and local government web resources and services.